weather.gov     
National Weather Service

Terminal Aerodrome Forecast
NWS Homepage
This page is being discontinued on March 12, 2014.
The same data is available at this site. Please update your bookmarks.
Thank you, and we apologize for the inconvenience.
Please send an email to SR-SRH.Webmaster@noaa.gov with any concerns.


Current Version
Previous Version:    01  02  03  04  05  06  07  08  09  10  11  12  13  14  15  16  17  18  19  20  21  22  23  
[Printable]
170
FTAK31 PANC 021135
TAFAVD
TAF
PAVD 021135Z 0212/0312 VRB06KT P6SM FEW080 BKN150
     FM022000 VRB04KT P6SM SCT030 BKN080
     FM030900 VRB02KT P6SM OVC030
      AMD LTD TO CLD VIS AND WIND=




170
FTAK31 PANC 021135
TAFAVD
TAF
PAVD 021135Z 0212/0312 VRB06KT P6SM FEW080 BKN150
     FM022000 VRB04KT P6SM SCT030 BKN080
     FM030900 VRB02KT P6SM OVC030
      AMD LTD TO CLD VIS AND WIND=


U.S. Dept. of Commerce
NOAA National Weather Service
1325 East West Highway
Silver Spring, MD 20910
E-mail: w-nws.webmaster@noaa.gov
Page last modified: May 16, 2007
NATIONAL WEATHER SERVICE: for Safety, for Work, for Fun - FOR LIFE